Regional Weather Roundup
Issued by NWS Midland/Odessa, TX

Skip options and go directly to product.
Home | Oldest Version | Previous Version | Current Version | All | Text Only | Save Text | Print | Product List | Glossary Off

Skip product version selection by date and time.   

550
ASUS44 KMAF 220110
RWRMAF
MIDLAND AREA WEATHER ROUNDUP
NATIONAL WEATHER SERVICE MIDLAND TX
700 PM CST SUN DEC 21 2014

...IN SOUTHWEST TEXAS AND SOUTHEAST NEW MEXICO...

CITY           SKY/WX    TMP DP  RH WIND       PRES   REMARKS
ALPINE         MOCLDY    55  22  27 SW12      29.95R
ANDREWS        FAIR      59  27  29 SW12      29.71F
ARTESIA        CLOUDY    57  27  30 W24G35    29.76F
BIG SPRING     CLOUDY    59  26  28 S9        29.73F
CARLSBAD       CLOUDY    61  24  24 W25G38    29.75R
DRYDEN           N/A     54  46  74 CALM      29.82R
FORT STOCKTON  CLOUDY    60  25  26 SW13      29.80S
GUAD PASS      NOT AVBL
HOBBS          CLEAR     57  27  30 SW17G29   29.72F
MARFA          MOCLDY    48  21  34 SW10      29.96R
MIDLAND AIRPK  MOCLDY    63  26  24 SW12      29.74F
MIDLAND INTL   CLOUDY    62  25  24 SW16      29.73F
ODESSA         CLOUDY    61  22  22 W15       29.74F
PECOS          MOCLDY    60  23  24 SW10      29.78F
PRESIDIO       FAIR      62  28  27 CALM      29.89S
SEMINOLE       CLOUDY    56  28  33 SW12      29.71F
SNYDER         CLOUDY    58  29  33 S9        29.68F
WINK           MOCLDY    63  22  20 W17G25    29.73R
$$
...OTHER STATIONS IN TEXAS...

CITY           SKY/WX    TMP DP  RH WIND       PRES   REMARKS
ABILENE        MOCLDY    56  42  59 S15       29.72S
AMARILLO       CLOUDY    47  26  44 SE10      29.59F
AUSTIN         CLOUDY    56  51  84 S14G22    29.87F
BROWNSVILLE    CLOUDY    64  60  87 N6        29.92S
CORPUS CHRISTI MOCLDY    58  54  86 SE3       29.93R
DALLAS FTW     CLOUDY    51  45  79 S15       29.81F
DEL RIO        CLEAR     52  48  86 E5        29.85F
EL PASO        MOCLDY    60  26  27 W24G40    29.89F SQUALL
HOUSTON INT    PTCLDY    55  51  86 SE8       29.93F
LUBBOCK        CLOUDY    57  26  30 W15       29.64R
SAN ANGELO     MOCLDY    55  44  66 S14       29.76R
SAN ANTONIO    CLOUDY    55  50  83 S13       29.90S
WACO           CLOUDY    52  47  83 SE13      29.85F
WICHITA FALLS  NOT AVBL
$$
...OTHER LOCATIONS IN NEW MEXICO...

CITY           SKY/WX    TMP DP  RH WIND       PRES   REMARKS
ALAMAGORDO     MOCLDY    48  28  46 NE9       29.92R
ALBUQUERQUE    MOCLDY    46  29  51 N8        29.92F
CANNON AFB     MOCLDY    53  26  35 W18G28    29.66S
CLOVIS         CLOUDY    54  27  35 W18G28    29.64S
HOLLOMAN AFB   MOCLDY    47  31  53 NE8       29.89S
ROSWELL        CLOUDY    59  26  28 W17       29.73F
RUIDOSO        PTCLDY    46  23  39 NW14G28   29.92R
SANTA FE       PTCLDY    37  25  61 N5        29.89S WCI  33
TRUTH OR CONSE CLEAR     49  27  42 W5        29.91R
TUCUMCARI      CLOUDY    54  26  34 W23       29.60R
$$

USA.gov is the U.S. government's official web portal to all federal, state and local government web resources and services.